Track YAOGAN-31 B now! 10-day predictions YAOGAN-31 B is classified as:
1 43276U 18034B 25183.88348477 -.00000077 00000-0 19123-4 0 9991 2 43276 63.3969 269.8485 0244136 6.3005 354.0996 13.45409205355222